Hourly Data Report for October 26, 2016

All times are specified in Local Standard Time (LST). Add 1 hour to adjust for Daylight Saving Time where and when it is observed.

POND INLET A
NUNAVUT

72°41'22.000" N
77°58'08.000" W
61.60 m
2403206
71095
YIO

Related Data

No related data is available for this station

Download Data

Hourly Data (October 2016)
Hourly Data Report for October 26, 2016
Temp Definition
°C
Dew Point Temp Definition
°C
Rel Hum Definition
%
Wind Dir Definition
10's deg

Wind Spd Definition
km/h
Visibility Definition
km
Stn Press Definition
kPa
Hmdx Definition


Wind Chill Definition


Weather Definition


TIME
00:00 Legend Double Dagger -9.2 -11.9 81 24 30 16.1 100.52   -18 Snow
01:00 Legend Double Dagger -9.9 -10.8 93 26 28 2.0 100.49   -19 Snow
02:00 Legend Double Dagger -10.3 -11.2 93 26 30 2.0 100.47   -20 Snow
03:00 Legend Double Dagger -10.5 -11.6 92 22 24 1.2 100.44   -19 Snow
04:00 Legend Double Dagger -10.7 -11.8 92 22 22 2.0 100.40   -19 Snow
05:00 Legend Double Dagger -10.7 -11.9 91 21 17 2.0 100.32   -18 Snow
06:00 Legend Double Dagger -10.3 -11.9 88 21 18 3.2 100.25   -18 Snow
07:00 Legend Double Dagger -10.2 -12.1 86 20 13 4.8 100.21   -16 Snow
08:00 Legend Double Dagger -10.2 -12.1 86 20 13 3.2 100.16   -16 Snow
09:00 Legend Double Dagger -10.3 -12.2 86 22 9 3.2 100.09   -15 Snow
10:00 Legend Double Dagger -10.2 -12.7 82 22 15 2.8 100.06   -17 Snow
11:00 Legend Double Dagger -10.1 -12.3 84 21 18 4.8 100.05   -18 Snow
12:00 Legend Double Dagger -10.9 -13.7 80 22 35 16.1 100.06   -21 LegendNANA
13:00 Legend Double Dagger -10.9 -14.3 76 25 28 16.1 100.09   -20 LegendNANA
14:00 Legend Double Dagger -11.6 -15.2 75 27 21 16.1 100.12   -20 LegendNANA
15:00 Legend Double Dagger -12.3 -15.2 79 28 11 16.1 100.15   -18 LegendNANA
16:00 Legend Double Dagger -12.6 -15.8 77 27 13 16.1 100.16   -19 LegendNANA
17:00 Legend Double Dagger -13.0 -16.7 74 26 13 16.1 100.19   -20 LegendNANA
18:00 Legend Double Dagger -13.1 -16.6 75 24 13 16.1 100.21   -20 LegendNANA
19:00 Legend Double Dagger -13.8 -17.1 76 23 11 16.1 100.22   -20 LegendNANA
20:00 Legend Double Dagger -15.1 -18.1 78 15 13 16.1 100.21   -22 LegendNANA
21:00 Legend Double Dagger -17.2 -19.9 80 14 22 16.1 100.17   -27 LegendNANA
22:00 Legend Double Dagger -16.9 -20.3 75 15 18 16.1 100.17   -26 LegendNANA
23:00 Legend Double Dagger -17.4 -21.2 73 14 18 16.1 100.17   -27 LegendNANA

Notes on Data Quality.

Legend

  • E = Estimated
  • M = Missing
  • NA = Not Available
  • ‡ = Partner data that is not subject to review by the National Climate Archives
Date modified: